Zapata, TX

12:39 AM CDT on May 30, 2017 (GMT -0500)
Zapata

Weather History for KAPY - February, 2013

Change the Weather History Date:

Saturday, February 23, 2013

  Actual Average (KLRD) Record (KLRD)
Temperature  
Mean Temperature 63 °F -  
Max Temperature 73 °F 71 °F 100 °F (2017)
Min Temperature 53 °F 50 °F 25 °F (1976)
Degree Days  
Heating Degree Days 2    
Growing Degree Days 13 (Base 50)    
Moisture  
Dew Point 37 °F    
Average Humidity 40    
Maximum Humidity 51    
Minimum Humidity 25    
Precipitation  
Precipitation 0.00 in - - ()
Sea Level Pressure  
Sea Level Pressure 29.94 in    
Wind  
Wind Speed 5 mph (NNE)    
Max Wind Speed 12 mph    
Max Gust Speed -    
Visibility 10 miles    
Events      
Averages and records for this station are not official NWS values.
T = Trace of Precipitation, MM = Missing Value Source: NWS Daily Summary

Daily Weather History Graph

Daily Weather History Graph

Search for Another Location

Airport or City:

Trip Planner

Search our weather history database for the weather conditions in past years. The results will help you decide how hot, cold, wet, or windy it might be!

Date:

Astronomy

Feb. 23, 2013 Rise Set
Actual Time 7:06 AM CST 6:34 PM CST
Civil Twilight 6:42 AM CST 6:58 PM CST
Nautical Twilight 6:15 AM CST 7:25 PM CST
Astronomical Twilight 5:48 AM CST 7:52 PM CST
Moon 4:51 PM CST (2/23) 5:22 AM CST (2/23)
Length of Visible Light 12h 15m
Length of Day
11h 28m
Waxing Gibbous, 95% of the Moon is Illuminated
Feb 23
Waxing Gibbous
Feb 25
Full
Mar 4
Last Quarter
Mar 11
New
Mar 19
First Quarter

Hourly Weather History & Observations

Time (CST) Temp. Dew Point Humidity Pressure Visibility Wind Dir Wind Speed Gust Speed Precip Events Conditions
12:15 AM 63.3 °F 41.0 °F 44% 29.92 in 10.0 mi NE 5.8 mph - N/A   Clear
12:35 AM 63.5 °F 40.6 °F 43% 29.92 in 10.0 mi NNE 5.8 mph - N/A   Clear
12:55 AM 62.2 °F 40.6 °F 45% 29.92 in 10.0 mi NNE 5.8 mph - N/A   Clear
1:15 AM 62.4 °F 40.1 °F 44% 29.92 in 10.0 mi NE 8.1 mph - N/A   Clear
1:35 AM 62.6 °F 40.3 °F 44% 29.93 in 10.0 mi NNE 3.5 mph - N/A   Clear
1:55 AM 62.1 °F 40.5 °F 45% 29.93 in 10.0 mi NE 3.5 mph - N/A   Clear
2:35 AM 61.9 °F 40.1 °F 45% 29.93 in 10.0 mi ENE 3.5 mph - N/A   Scattered Clouds
2:55 AM 61.0 °F 40.3 °F 46% 29.93 in 10.0 mi NE 3.5 mph - N/A   Clear
3:15 AM 60.8 °F 39.7 °F 46% 29.92 in 10.0 mi NE 4.6 mph - N/A   Clear
3:35 AM 59.9 °F 39.6 °F 47% 29.92 in 10.0 mi Calm Calm - N/A   Clear
3:55 AM 59.2 °F 39.4 °F 48% 29.92 in 10.0 mi NE 3.5 mph - N/A   Clear
4:15 AM 59.0 °F 39.2 °F 48% 29.92 in 10.0 mi NNE 3.5 mph - N/A   Clear
4:35 AM 58.3 °F 38.8 °F 48% 29.93 in 10.0 mi NNE 3.5 mph - N/A   Clear
4:55 AM 57.7 °F 38.7 °F 49% 29.93 in 10.0 mi NNE 4.6 mph - N/A   Scattered Clouds
5:15 AM 57.4 °F 38.5 °F 49% 29.94 in 10.0 mi North 3.5 mph - N/A   Mostly Cloudy
5:35 AM 57.6 °F 38.3 °F 49% 29.93 in 10.0 mi NE 6.9 mph - N/A   Overcast
5:55 AM 57.4 °F 38.3 °F 49% 29.94 in 10.0 mi NNE 4.6 mph - N/A   Overcast
6:15 AM 57.2 °F 37.9 °F 49% 29.95 in 10.0 mi North 5.8 mph - N/A   Overcast
6:35 AM 57.2 °F 37.8 °F 48% 29.96 in 10.0 mi North 3.5 mph - N/A   Overcast
6:55 AM 57.2 °F 37.8 °F 48% 29.98 in 10.0 mi North 5.8 mph - N/A   Overcast
7:15 AM 56.8 °F 37.6 °F 49% 29.98 in 10.0 mi North 5.8 mph - N/A   Overcast
7:35 AM 56.7 °F 37.4 °F 49% 29.99 in 10.0 mi North 4.6 mph - N/A   Overcast
7:55 AM 56.3 °F 36.5 °F 47% 30.00 in 10.0 mi NNW 6.9 mph - N/A   Overcast
8:15 AM 56.1 °F 35.8 °F 46% 30.01 in 10.0 mi North 5.8 mph - N/A   Overcast
8:35 AM 56.3 °F 35.6 °F 46% 30.02 in 10.0 mi NNW 8.1 mph - N/A   Overcast
8:55 AM 56.3 °F 35.2 °F 45% 30.03 in 10.0 mi North 5.8 mph - N/A   Overcast
9:15 AM 56.3 °F 34.9 °F 45% 30.04 in 10.0 mi NNW 8.1 mph - N/A   Overcast
9:35 AM 56.8 °F 34.7 °F 43% 30.04 in 10.0 mi North 5.8 mph - N/A   Overcast
9:55 AM 57.4 °F 34.9 °F 43% 30.03 in 10.0 mi North 6.9 mph - N/A   Overcast
10:15 AM 59.2 °F 35.6 °F 41% 30.04 in 10.0 mi North 5.8 mph - N/A   Overcast
10:35 AM 61.0 °F 36.5 °F 40% 30.04 in 10.0 mi NNE 4.6 mph - N/A   Scattered Clouds
10:55 AM 62.8 °F 37.0 °F 38% 30.05 in 10.0 mi NW 6.9 mph - N/A   Clear
11:15 AM 63.1 °F 37.2 °F 38% 30.04 in 10.0 mi NNW 5.8 mph - N/A   Clear
11:35 AM 63.7 °F 37.0 °F 37% 30.04 in 10.0 mi NNW 6.9 mph - N/A   Clear
11:55 AM 65.3 °F 37.9 °F 36% 30.02 in 10.0 mi Calm Calm - N/A   Clear
12:15 PM 67.3 °F 38.3 °F 35% 30.02 in 10.0 mi NW 9.2 mph - N/A   Scattered Clouds
12:35 PM 68.9 °F 38.7 °F 33% 30.01 in 10.0 mi NNW 6.9 mph - N/A   Scattered Clouds
12:55 PM 70.0 °F 39.4 °F 33% 29.99 in 10.0 mi NNE 8.1 mph - N/A   Clear
1:15 PM 70.7 °F 39.9 °F 33% 29.98 in 10.0 mi NW 11.5 mph - N/A   Clear
1:35 PM 72.3 °F 39.7 °F 31% 29.96 in 10.0 mi NNW 8.1 mph - N/A   Clear
1:55 PM 71.6 °F 39.6 °F 31% 29.95 in 10.0 mi NNW 10.4 mph - N/A   Clear
2:15 PM 71.4 °F 39.4 °F 31% 29.94 in 10.0 mi NW 6.9 mph - N/A   Clear
2:35 PM 73.0 °F 38.8 °F 29% 29.93 in 10.0 mi NNW 5.8 mph - N/A   Clear
2:55 PM 73.6 °F 37.6 °F 27% 29.91 in 10.0 mi NNW 8.1 mph - N/A   Clear
3:15 PM 72.9 °F 36.7 °F 27% 29.91 in 10.0 mi NNW 4.6 mph - N/A   Clear
3:35 PM 72.1 °F 36.1 °F 27% 29.90 in 10.0 mi North 4.6 mph - N/A   Clear
3:55 PM 72.9 °F 35.8 °F 26% 29.89 in 10.0 mi NNE 4.6 mph - N/A   Clear
4:15 PM 72.5 °F 35.6 °F 26% 29.88 in 10.0 mi NNW 4.6 mph - N/A   Clear
4:35 PM 72.3 °F 35.6 °F 26% 29.87 in 10.0 mi North 3.5 mph - N/A   Clear
4:55 PM 72.5 °F 35.6 °F 26% 29.87 in 10.0 mi North 5.8 mph - N/A   Clear
5:15 PM 72.0 °F 35.6 °F 26% 29.88 in 10.0 mi Calm Calm - N/A   Clear
5:35 PM 73.4 °F 35.1 °F 25% 29.87 in 10.0 mi Calm Calm - N/A   Clear
5:55 PM 72.5 °F 34.9 °F 25% 29.87 in 10.0 mi Calm Calm - N/A   Clear
6:15 PM 71.6 °F 35.1 °F 26% 29.87 in 10.0 mi ENE 3.5 mph - N/A   Clear
6:35 PM 70.3 °F 35.2 °F 28% 29.88 in 10.0 mi Calm Calm - N/A   Clear
6:55 PM 67.5 °F 35.4 °F 31% 29.88 in 10.0 mi Calm Calm - N/A   Clear
7:15 PM 64.2 °F 35.6 °F 35% 29.89 in 10.0 mi North 3.5 mph - N/A   Clear
7:35 PM 62.8 °F 35.6 °F 36% 29.89 in 10.0 mi North 4.6 mph - N/A   Clear
7:55 PM 64.4 °F 36.5 °F 36% 29.89 in 10.0 mi North 4.6 mph - N/A   Clear
8:15 PM 57.6 °F 35.4 °F 43% 29.90 in 10.0 mi North 3.5 mph - N/A   Clear
8:35 PM 56.8 °F 34.5 °F 43% 29.91 in 10.0 mi Calm Calm - N/A   Clear
8:55 PM 57.9 °F 35.6 °F 43% 29.91 in 10.0 mi Calm Calm - N/A   Clear
9:15 PM 55.0 °F 34.7 °F 46% 29.91 in 10.0 mi Calm Calm - N/A   Clear
9:35 PM 53.8 °F 34.3 °F 48% 29.91 in 10.0 mi Calm Calm - N/A   Clear
9:55 PM 57.0 °F 36.7 °F 47% 29.91 in 10.0 mi ENE 4.6 mph - N/A   Clear
10:15 PM 55.9 °F 36.0 °F 47% 29.90 in 10.0 mi East 6.9 mph - N/A   Clear
10:35 PM 59.4 °F 36.3 °F 42% 29.90 in 10.0 mi East 5.8 mph - N/A   Clear
10:55 PM 60.1 °F 36.5 °F 41% 29.90 in 10.0 mi East 5.8 mph - N/A   Clear
11:15 PM 59.0 °F 36.5 °F 43% 29.89 in 10.0 mi East 5.8 mph - N/A   Clear
11:35 PM 58.6 °F 38.5 °F 47% 29.89 in 10.0 mi East 4.6 mph - N/A   Clear
11:55 PM 57.6 °F 39.4 °F 51% 29.89 in 10.0 mi ESE 4.6 mph - N/A   Clear